Pineville, WV

11:12 AM EDT on September 15, 2019 (GMT -0400)
Pineville

Weather History for KI16 - August, 2019

Change the Weather History Date:

Monday, August 19, 2019

  Actual Average (KBKW) Record (KBKW)
Temperature  
Mean Temperature 79 °F -  
Max Temperature 93 °F 79 °F 98 °F (1911)
Min Temperature 65 °F 60 °F 41 °F (1943)
Cooling Degree Days 14    
Growing Degree Days 29 (Base 50)    
Moisture  
Dew Point 66 °F    
Average Humidity 73    
Maximum Humidity 96    
Minimum Humidity 36    
Precipitation  
Precipitation 0.00 in - - ()
Sea Level Pressure  
Sea Level Pressure 30.15 in    
Wind  
Wind Speed - (North)    
Max Wind Speed -    
Max Gust Speed -    
Visibility 10 miles    
Events      
Averages and records for this station are not official NWS values.
T = Trace of Precipitation, MM = Missing Value Source: NWS Daily Summary

Daily Weather History Graph

Daily Weather History Graph

Search for Another Location

Airport or City:

Astronomy

Aug. 19, 2019 Rise Set
Actual Time 6:45 AM EDT 8:13 PM EDT
Civil Twilight 6:17 AM EDT 8:41 PM EDT
Nautical Twilight 5:44 AM EDT 9:14 PM EDT
Astronomical Twilight 5:09 AM EDT 9:49 PM EDT
Moon 10:38 PM EDT (8/19) 10:21 AM EDT (8/19)
Length of Visible Light 14h 23m
Length of Day
13h 28m
Waning Gibbous, 85% of the Moon is Illuminated
Aug 19
Waning Gibbous
Aug 23
Last Quarter
Aug 30
New
Sep 5
First Quarter
Sep 14
Full

Hourly Weather History & Observations

Time (EDT) Temp. Heat Index Dew Point Humidity Pressure Visibility Wind Dir Wind Speed Gust Speed Precip Events Conditions
12:15 AM 69.6 °F - 65.5 °F 87% 30.11 in 10.0 mi North - - N/A   Clear
12:35 AM 69.1 °F - 65.5 °F 88% 30.11 in 10.0 mi North - - N/A   Clear
12:55 AM 68.9 °F - 65.5 °F 89% 30.12 in 10.0 mi North - - N/A   Clear
1:15 AM 68.5 °F - 65.1 °F 89% 30.12 in 10.0 mi North - - N/A   Clear
1:35 AM 68.2 °F - 65.3 °F 90% 30.13 in 10.0 mi North - - N/A   Clear
1:55 AM 68.2 °F - 65.5 °F 91% 30.13 in 10.0 mi North - - N/A   Clear
2:15 AM 67.8 °F - 65.3 °F 92% 30.12 in 10.0 mi North - - N/A   Clear
2:35 AM 67.6 °F - 65.5 °F 93% 30.12 in 10.0 mi North - - N/A   Clear
2:55 AM 67.3 °F - 65.3 °F 93% 30.12 in 10.0 mi North - - N/A   Clear
3:15 AM 66.9 °F - 65.1 °F 94% 30.12 in 10.0 mi North - - N/A   Clear
3:35 AM 67.1 °F - 65.3 °F 94% 30.13 in 10.0 mi North - - N/A   Clear
3:55 AM 66.6 °F - 64.9 °F 95% 30.13 in 10.0 mi North - - N/A   Clear
4:15 AM 66.2 °F - 64.8 °F 95% 30.12 in 10.0 mi North - - N/A   Clear
4:35 AM 66.4 °F - 64.9 °F 95% 30.12 in 10.0 mi North - - N/A   Clear
4:55 AM 66.4 °F - 64.8 °F 95% 30.13 in 10.0 mi North - - N/A   Clear
5:15 AM 65.7 °F - 64.4 °F 96% 30.13 in 10.0 mi North - - N/A   Clear
5:35 AM 65.7 °F - 64.4 °F 96% 30.14 in 10.0 mi North - - N/A   Clear
5:55 AM 65.5 °F - 64.4 °F 96% 30.14 in 10.0 mi North - - N/A   Clear
6:15 AM 65.3 °F - 64.2 °F 96% 30.14 in 10.0 mi North - - N/A   Clear
6:35 AM 65.3 °F - 64.2 °F 96% 30.14 in 10.0 mi North - - N/A   Clear
6:55 AM 65.7 °F - 64.6 °F 96% 30.15 in 10.0 mi North - - N/A   Clear
7:15 AM 65.8 °F - 64.8 °F 96% 30.16 in 10.0 mi North - - N/A   Clear
7:35 AM 66.6 °F - 65.3 °F 96% 30.16 in 10.0 mi North - - N/A   Clear
7:55 AM 67.6 °F - 66.2 °F 95% 30.18 in 10.0 mi North - - N/A   Clear
8:15 AM 68.2 °F - 66.4 °F 94% 30.18 in 10.0 mi North - - N/A   Clear
8:35 AM 69.8 °F - 66.4 °F 89% 30.19 in 10.0 mi North - - N/A   Scattered Clouds
8:55 AM 72.0 °F - 66.9 °F 84% 30.18 in 10.0 mi North - - N/A   Scattered Clouds
9:15 AM 74.3 °F - 67.1 °F 78% 30.19 in 10.0 mi North - - N/A   Clear
9:35 AM 76.5 °F - 67.5 °F 74% 30.19 in 10.0 mi North - - N/A   Clear
9:55 AM 77.9 °F - 67.5 °F 70% 30.19 in 10.0 mi North - - N/A   Clear
10:15 AM 77.5 °F - 68.7 °F 74% 30.19 in 10.0 mi North - - N/A   Clear
10:35 AM 77.9 °F - 68.2 °F 72% 30.19 in 10.0 mi North - - N/A   Clear
10:55 AM 81.1 °F 83.9 °F 68.0 °F 64% 30.19 in 10.0 mi North - - N/A   Clear
11:15 AM 82.9 °F 86.0 °F 68.2 °F 61% 30.19 in 10.0 mi North - - N/A   Clear
11:35 AM 86.7 °F 90.3 °F 68.0 °F 54% 30.19 in 10.0 mi North - - N/A   Clear
11:55 AM 88.3 °F 91.6 °F 67.5 °F 50% 30.19 in 10.0 mi North - - N/A   Clear
12:15 PM 89.2 °F 92.0 °F 66.6 °F 47% 30.19 in 10.0 mi North - - N/A   Clear
12:35 PM 89.2 °F 92.8 °F 67.6 °F 49% 30.19 in 10.0 mi North - - N/A   Clear
12:55 PM 88.7 °F 91.1 °F 66.4 °F 47% 30.19 in 10.0 mi North - - N/A   Clear
1:15 PM 89.8 °F 92.1 °F 66.0 °F 45% 30.18 in 10.0 mi North - - N/A   Clear
1:35 PM 90.5 °F 92.9 °F 66.0 °F 44% 30.18 in 10.0 mi North - - N/A   Clear
1:55 PM 90.1 °F 92.3 °F 65.7 °F 44% 30.18 in 10.0 mi North - - N/A   Scattered Clouds
2:15 PM 90.3 °F 93.9 °F 67.8 °F 47% 30.18 in 10.0 mi North - - N/A   Scattered Clouds
2:35 PM 90.7 °F 93.6 °F 66.7 °F 45% 30.17 in 10.0 mi North - - N/A   Scattered Clouds
2:55 PM 90.9 °F 92.3 °F 63.9 °F 41% 30.16 in 10.0 mi North - - N/A   Scattered Clouds
3:15 PM 91.8 °F 92.6 °F 62.6 °F 38% 30.15 in 10.0 mi North - - N/A   Scattered Clouds
3:35 PM 91.4 °F 92.1 °F 62.4 °F 38% 30.15 in 10.0 mi North - - N/A   Clear
3:55 PM 92.7 °F 94.0 °F 63.3 °F 38% 30.14 in 10.0 mi North - - N/A   Clear
4:15 PM 93.2 °F 94.1 °F 62.6 °F 36% 30.14 in 10.0 mi North - - N/A   Clear
4:35 PM 91.2 °F 92.2 °F 63.3 °F 39% 30.13 in 10.0 mi North - - N/A   Scattered Clouds
4:55 PM 92.3 °F 93.1 °F 62.6 °F 37% 30.13 in 10.0 mi North - - N/A   Clear
5:15 PM 91.9 °F 93.3 °F 63.9 °F 39% 30.12 in 10.0 mi North - - N/A   Clear
5:35 PM 91.4 °F 93.2 °F 64.6 °F 41% 30.12 in 10.0 mi North - - N/A   Scattered Clouds
5:55 PM 86.4 °F 90.0 °F 68.4 °F 55% 30.12 in 10.0 mi North - - N/A   Scattered Clouds
6:15 PM 85.6 °F 89.1 °F 68.5 °F 56% 30.11 in 10.0 mi North - - N/A   Clear
6:35 PM 84.6 °F 87.9 °F 68.4 °F 58% 30.12 in 10.0 mi North - - N/A   Clear
6:55 PM 82.8 °F 86.4 °F 69.3 °F 64% 30.12 in 10.0 mi North - - N/A   Clear
7:15 PM 80.8 °F 83.8 °F 69.1 °F 67% 30.12 in 10.0 mi North - - N/A   Clear
7:35 PM 80.1 °F 82.9 °F 69.3 °F 69% 30.13 in 10.0 mi North - - N/A   Clear
7:55 PM 79.5 °F - 68.7 °F 69% 30.13 in 10.0 mi North - - N/A   Clear
8:15 PM 77.7 °F - 69.8 °F 76% 30.13 in 10.0 mi North - - N/A   Clear
8:35 PM 76.5 °F - 69.8 °F 80% 30.13 in 10.0 mi North - - N/A   Clear
8:55 PM 75.6 °F - 69.8 °F 82% 30.14 in 10.0 mi North - - N/A   Clear
9:15 PM 75.4 °F - 69.8 °F 83% 30.15 in 10.0 mi North - - N/A   Scattered Clouds
9:35 PM 74.8 °F - 69.8 °F 84% 30.16 in 10.0 mi North - - N/A   Scattered Clouds
9:55 PM 74.3 °F - 69.4 °F 85% 30.16 in 10.0 mi North - - N/A   Clear
10:15 PM 73.4 °F - 69.4 °F 87% 30.18 in 10.0 mi North - - N/A   Clear
10:35 PM 73.4 °F - 69.1 °F 86% 30.18 in 10.0 mi North - - N/A   Scattered Clouds
10:55 PM 72.9 °F - 69.3 °F 88% 30.19 in 10.0 mi North - - N/A   Scattered Clouds
11:15 PM 72.3 °F - 68.9 °F 89% 30.19 in 10.0 mi North - - N/A   Scattered Clouds
11:35 PM 72.1 °F - 69.1 °F 90% 30.19 in 10.0 mi North - - N/A   Clear